Retour au catalogue

MONITOR-4

ActifRadio amateurSSO
NORAD 57182·PAYLOAD·🇷🇺 Russia
Ce nom de satellite n'a pas encore été confirmé par des sources officielles.

Lancé Jun 27, 2023 depuis Vostochny Cosmodrome

Loading…

Prochains Passages (prochaines 24 heures)

TLE

FraisSource: Space-Track

Époque: Sep 14, 2026, 11:01 UTC

1 57182U 23091S   26257.45920958  .00008394  00000-0  29581-3 0  9994
2 57182  97.4985 321.5942 0012221 139.4636 220.7516 15.29472383177937

Suivez MONITOR-4 en temps réel avec AllMySat

Download on the App Store